Coolidge Muni, Coolidge, AZ

3:37 AM MST on December 09, 2019 (GMT -0700)
Coolidge Muni, Coolidge

Weather History for KP08 - September, 2019

Change the Weather History Date:

Monday, September 9, 2019

  Actual Average (WUND) Record (WUND)
Temperature  
Mean Temperature 89 °F -  
Max Temperature 96 °F - - (-1)
Min Temperature 82 °F - - (-1)
Cooling Degree Days 24    
Growing Degree Days 39 (Base 50)    
Moisture  
Dew Point 59 °F    
Average Humidity 37    
Maximum Humidity 62    
Minimum Humidity 23    
Precipitation  
Precipitation 0.00 in - - ()
Sea Level Pressure  
Sea Level Pressure 29.83 in    
Wind  
Wind Speed 6 mph ()    
Max Wind Speed 14 mph    
Max Gust Speed 18 mph    
Visibility 10.0 miles    
Events      
Averages and records for this station are not official NWS values.
T = Trace of Precipitation, MM = Missing Value Source: Averaged Metar Reports

Daily Weather History Graph

Daily Weather History Graph

Search for Another Location

Airport or City:

Astronomy

Sep. 09, 2019 Rise Set
Actual Time 6:05 AM MST 6:40 PM MST
Civil Twilight 5:40 AM MST 7:05 PM MST
Nautical Twilight 5:11 AM MST 7:34 PM MST
Astronomical Twilight 4:41 AM MST 8:04 PM MST
Moon 4:24 PM MST 1:54 AM MST
Length of Visible Light 13h 24m
Length of Day
12h 34m
Waxing Gibbous, 83% of the Moon is Illuminated
Sep 9
Waxing Gibbous
Sep 13
Full
Sep 21
Last Quarter
Sep 28
New
Oct 5
First Quarter

Hourly Weather History & Observations

Time (MST) Temp. Heat Index Dew Point Humidity Pressure Visibility Wind Dir Wind Speed Gust Speed Precip Events Conditions
7:55 AM 82.4 °F 85.4 °F 68.0 °F 62% 29.92 in 10.0 mi SW 4.6 mph - N/A   Clear
8:15 AM 84.2 °F 87.3 °F 68.0 °F 58% 29.92 in 10.0 mi SW 5.8 mph - N/A   Clear
8:35 AM 84.2 °F 87.3 °F 68.0 °F 58% 29.93 in 10.0 mi Variable 5.8 mph - N/A   Clear
8:55 AM 84.2 °F 87.3 °F 68.0 °F 58% 29.93 in 10.0 mi SW 5.8 mph - N/A   Clear
9:15 AM 84.2 °F 87.3 °F 68.0 °F 58% 29.93 in 10.0 mi WSW 4.6 mph - N/A   Partly Cloudy
9:35 AM 86.0 °F 89.4 °F 68.0 °F 55% 29.93 in 10.0 mi Calm Calm - N/A   Partly Cloudy
9:55 AM 86.0 °F 89.4 °F 68.0 °F 55% 29.93 in 10.0 mi West 6.9 mph - N/A   Partly Cloudy
10:15 AM 86.0 °F 89.4 °F 68.0 °F 55% 29.93 in 10.0 mi WNW 8.1 mph - N/A   Clear
10:35 AM 86.0 °F 88.2 °F 66.2 °F 51% 29.92 in 10.0 mi Calm Calm - N/A   Scattered Clouds
11:15 AM 87.8 °F 89.4 °F 64.4 °F 46% 29.91 in 10.0 mi Variable 6.9 mph 12.7 mph N/A   Scattered Clouds
11:35 AM 89.6 °F 91.1 °F 64.4 °F 43% 29.90 in 10.0 mi WSW 13.8 mph - N/A   Partly Cloudy
11:55 AM 91.4 °F 92.1 °F 62.6 °F 38% 29.90 in 10.0 mi Variable 5.8 mph 17.3 mph N/A   Clear
12:15 PM 91.4 °F 92.1 °F 62.6 °F 38% 29.89 in 10.0 mi Variable 6.9 mph 16.1 mph N/A   Clear
12:35 PM 91.4 °F 91.4 °F 60.8 °F 36% 29.88 in 10.0 mi Calm Calm 13.8 mph N/A   Clear
12:55 PM 93.2 °F 93.3 °F 60.8 °F 34% 29.88 in 10.0 mi WSW 11.5 mph - N/A   Clear
1:15 PM 93.2 °F 91.9 °F 57.2 °F 30% 29.86 in 10.0 mi SW 11.5 mph - N/A   Clear
1:35 PM 93.2 °F 92.6 °F 59.0 °F 32% 29.85 in 10.0 mi Variable 6.9 mph - N/A   Clear
1:55 PM 95.0 °F 93.7 °F 57.2 °F 28% 29.84 in 10.0 mi WSW 10.4 mph - N/A   Clear
2:15 PM 95.0 °F 93.7 °F 57.2 °F 28% 29.83 in 10.0 mi WNW 6.9 mph 13.8 mph N/A   Partly Cloudy
2:35 PM 96.8 °F 95.1 °F 55.4 °F 25% 29.82 in 10.0 mi WSW 8.1 mph 17.3 mph N/A   Partly Cloudy
2:55 PM 95.0 °F 93.7 °F 57.2 °F 28% 29.82 in 10.0 mi WNW 6.9 mph 13.8 mph N/A   Clear
3:15 PM 95.0 °F 93.0 °F 55.4 °F 26% 29.81 in 10.0 mi Variable 6.9 mph - N/A   Clear
3:35 PM 95.0 °F 93.0 °F 55.4 °F 26% 29.80 in 10.0 mi Variable 6.9 mph 18.4 mph N/A   Clear
3:55 PM 95.0 °F 93.0 °F 55.4 °F 26% 29.79 in 10.0 mi SW 8.1 mph 13.8 mph N/A   Clear
4:15 PM 96.8 °F 95.1 °F 55.4 °F 25% 29.78 in 10.0 mi West 5.8 mph 16.1 mph N/A   Clear
4:35 PM 95.0 °F 93.0 °F 55.4 °F 26% 29.77 in 10.0 mi Calm Calm 11.5 mph N/A   Clear
4:55 PM 96.8 °F 94.4 °F 53.6 °F 23% 29.77 in 10.0 mi SW 8.1 mph - N/A   Clear
5:15 PM 96.8 °F 94.4 °F 53.6 °F 23% 29.77 in 10.0 mi West 6.9 mph - N/A   Clear
5:35 PM 95.0 °F 92.7 °F 53.6 °F 25% 29.76 in 10.0 mi WNW 6.9 mph - N/A   Clear
5:55 PM 95.0 °F - 51.8 °F 23% 29.76 in 10.0 mi West 5.8 mph - N/A   Clear
6:15 PM 95.0 °F 92.7 °F 53.6 °F 25% 29.76 in 10.0 mi West 5.8 mph - N/A   Clear
6:35 PM 93.2 °F 91.3 °F 55.4 °F 28% 29.76 in 10.0 mi West 5.8 mph - N/A   Clear
6:55 PM 93.2 °F 91.3 °F 55.4 °F 28% 29.76 in 10.0 mi Calm Calm - N/A   Clear
7:15 PM 91.4 °F 89.4 °F 55.4 °F 29% 29.76 in 10.0 mi SW 3.5 mph - N/A   Clear
7:35 PM 91.4 °F 89.4 °F 55.4 °F 29% 29.77 in 10.0 mi SW 5.8 mph - N/A   Partly Cloudy
7:55 PM 89.6 °F 87.7 °F 55.4 °F 31% 29.77 in 10.0 mi SSW 6.9 mph - N/A   Clear
8:35 PM 87.8 °F 86.1 °F 55.4 °F 33% 29.78 in 10.0 mi South 5.8 mph - N/A   Mostly Cloudy
8:55 PM 87.8 °F 86.1 °F 55.4 °F 33% 29.79 in 10.0 mi SSW 5.8 mph - N/A   Scattered Clouds
9:15 PM 87.8 °F 86.1 °F 55.4 °F 33% 29.79 in 10.0 mi SSW 4.6 mph - N/A   Scattered Clouds
9:35 PM 86.0 °F 84.5 °F 55.4 °F 35% 29.79 in 10.0 mi SSW 5.8 mph - N/A   Mostly Cloudy
9:55 PM 86.0 °F 84.5 °F 55.4 °F 35% 29.80 in 10.0 mi SSW 5.8 mph - N/A   Mostly Cloudy
10:15 PM 86.0 °F 84.5 °F 55.4 °F 35% 29.80 in 10.0 mi South 5.8 mph - N/A   Mostly Cloudy
10:35 PM 84.2 °F 83.5 °F 57.2 °F 40% 29.81 in 10.0 mi South 8.1 mph - N/A   Partly Cloudy
10:55 PM 86.0 °F 85.4 °F 59.0 °F 40% 29.82 in 10.0 mi SW 10.4 mph - N/A   Mostly Cloudy
11:15 PM 84.2 °F 84.4 °F 60.8 °F 45% 29.82 in 10.0 mi SSW 9.2 mph - N/A   Overcast
11:35 PM 84.2 °F 85.0 °F 62.6 °F 48% 29.82 in 10.0 mi WSW 8.1 mph - N/A   Mostly Cloudy
11:55 PM 86.0 °F 87.3 °F 64.4 °F 48% 29.83 in 10.0 mi WSW 10.4 mph - N/A   Mostly Cloudy